This demonstration page uses our WeatherBlox Daily Observations layout. Learn more.

Left ArrowRight Arrow

Hourly Observations for December 9, 2020

Temp ( °F °C ) Dew Point ( °F °C ) Humidity (%) Winds ( mph kmh ) Pressure ( in mb ) Visibility ( mi km ) Precip ( " mm )
12:54 am 00:54 Clear 37 2.8 23 -5 57 57 Calm 29.98 1015 10 16.0934 0 0
1:54 am 01:54 Clear 34 1.1 22 -5.6 61 61 WSW 3 6 29.98 1015 10 16.0934 0 0
2:54 am 02:54 Clear 39 3.9 22 -5.6 50 50 Calm 29.98 1015 10 16.0934 0 0
3:54 am 03:54 Clear 35 1.7 22 -5.6 59 59 W 3 6 29.99 1016 10 16.0934 0 0
4:54 am 04:54 Clear 36 2.2 22 -5.6 57 57 Calm 29.98 1015 10 16.0934 0 0
5:54 am 05:54 Clear 34 1.1 22 -5.6 61 61 W 5 7 30 1016 10 16.0934 0 0
6:54 am 06:54 Clear 38 3.3 22 -5.6 52 52 WSW 8 13 30.01 1016 10 16.0934 0 0
7:54 am 07:54 Sunny 38 3.3 22 -5.6 52 52 W 3 6 30.03 1017 10 16.0934 0 0
8:54 am 08:54 Sunny 42 5.6 26 -3.3 53 53 Calm 30.05 1018 10 16.0934 0 0
9:54 am 09:54 Sunny 51 10.6 27 -2.8 39 39 Calm 30.05 1018 10 16.0934 0 0
10:54 am 10:54 Sunny 59 15 27 -2.8 29 29 N 10 17 30.05 1018 10 16.0934 0 0
11:54 am 11:54 Sunny 64 17.8 27 -2.8 25 25 N 14 22 30.02 1017 10 16.0934 0 0
12:54 pm 12:54 Sunny 65 18.3 28 -2.2 25 25 N 8 13 30 1016 10 16.0934 0 0
1:54 pm 13:54 Sunny 65 18.3 28 -2.2 25 25 N 5 7 29.99 1016 10 16.0934 0 0
2:54 pm 14:54 Sunny 64 17.8 29 -1.7 27 27 N 5 7 29.97 1015 10 16.0934 0 0
3:54 pm 15:54 Sunny 63 17.2 30 -1.1 29 29 NE 6 9 29.97 1015 10 16.0934 0 0
4:54 pm 16:54 Sunny 52 11.1 29 -1.7 41 41 ENE 6 9 29.98 1015 10 16.0934 0 0
5:54 pm 17:54 Clear 51 10.6 28 -2.2 41 41 VRB 3 6 30 1016 10 16.0934 0 0
6:54 pm 18:54 Clear 43 6.1 28 -2.2 56 56 Calm 30.01 1016 10 16.0934 0 0
7:54 pm 19:54 Clear 42 5.6 27 -2.8 55 55 NNW 5 7 30.01 1016 9 14.48406 0 0
8:54 pm 20:54 Clear 34 1.1 25 -3.9 70 70 SE 5 7 29.98 1015 9 14.48406 0 0
9:54 pm 21:54 Clear 31 -0.6 23 -5 72 72 N 5 7 29.98 1015 9 14.48406 0 0
10:54 pm 22:54 Clear 34 1.1 24 -4.4 67 67 Calm 29.96 1014 8 12.87472 0 0
11:54 pm 23:54 Clear 30 -1.1 23 -5 75 75 Calm 29.95 1014 10 16.0934 0 0

Powered by AerisWeather